Time,TemperatureF,DewpointF,PressureIn,WindDirection,WindDirectionDegrees,WindSpeedMPH,WindSpeedGustMPH,Humidity,HourlyPrecipIn,Conditions,Clouds,dailyrainin,SoftwareType,DateUTC
2013-06-23 00:01:00,71.0,64.0,30.18,SE,134,0.0,1.0,79,0.00,,,0.00,,2013-06-23 04:01:00,
2013-06-23 00:11:00,71.0,64.0,30.18,SE,134,0.0,1.0,79,0.00,,,0.00,,2013-06-23 04:11:00,
2013-06-23 00:21:00,72.0,65.0,30.19,SE,134,0.0,1.0,79,0.00,,,0.00,,2013-06-23 04:21:00,
2013-06-23 00:31:00,72.0,65.0,30.19,SE,134,0.0,1.0,79,0.00,,,0.00,,2013-06-23 04:31:00,
2013-06-23 00:42:00,72.0,65.0,30.19,SE,134,0.0,1.0,79,0.00,,,0.00,,2013-06-23 04:42:00,
2013-06-23 00:52:00,72.0,65.0,30.19,SE,134,0.0,1.0,79,0.00,,,0.00,,2013-06-23 04:52:00,
2013-06-23 01:01:00,72.0,65.0,30.19,SE,134,0.0,1.0,79,0.00,,,0.00,,2013-06-23 05:01:00,
2013-06-23 01:11:00,72.0,65.0,30.19,SE,134,0.0,1.0,78,0.00,,,0.00,,2013-06-23 05:11:00,
2013-06-23 01:22:00,72.0,65.0,30.19,SE,134,0.0,1.0,78,0.00,,,0.00,,2013-06-23 05:22:00,
2013-06-23 01:32:00,70.0,63.0,30.19,SE,134,0.0,2.0,78,0.00,,,0.00,,2013-06-23 05:32:00,
2013-06-23 01:41:00,70.0,62.0,30.19,SE,134,0.0,2.0,77,0.00,,,0.00,,2013-06-23 05:41:00,
2013-06-23 01:51:00,70.0,62.0,30.19,SE,134,0.0,1.0,77,0.00,,,0.00,,2013-06-23 05:51:00,
2013-06-23 02:02:00,70.0,63.0,30.18,SE,134,0.0,2.0,79,0.00,,,0.00,,2013-06-23 06:02:00,
2013-06-23 02:12:00,69.0,63.0,30.18,SE,134,0.0,1.0,80,0.00,,,0.00,,2013-06-23 06:12:00,
2013-06-23 02:22:00,69.0,63.0,30.17,SE,134,0.0,1.0,81,0.00,,,0.00,,2013-06-23 06:22:00,
2013-06-23 02:33:00,68.0,62.0,30.17,SE,134,0.0,1.0,82,0.00,,,0.00,,2013-06-23 06:33:00,
2013-06-23 02:43:00,68.0,63.0,30.17,SE,134,0.0,0.0,83,0.00,,,0.00,,2013-06-23 06:43:00,
2013-06-23 02:52:00,67.0,62.0,30.16,SE,134,0.0,1.0,83,0.00,,,0.00,,2013-06-23 06:52:00,
2013-06-23 03:02:00,67.0,61.0,30.16,SE,134,0.0,0.0,82,0.00,,,0.00,,2013-06-23 07:02:00,
2013-06-23 03:12:00,68.0,62.0,30.16,SE,134,0.0,0.0,81,0.00,,,0.00,,2013-06-23 07:12:00,
2013-06-23 03:34:00,68.0,62.0,30.16,SE,134,0.0,0.0,81,0.00,,,0.00,,2013-06-23 07:34:00,
2013-06-23 03:43:00,67.0,61.0,30.16,SE,134,0.0,0.0,81,0.00,,,0.00,,2013-06-23 07:43:00,
2013-06-23 03:53:00,67.0,61.0,30.16,SE,134,0.0,1.0,81,0.00,,,0.00,,2013-06-23 07:53:00,
2013-06-23 04:02:00,67.0,61.0,30.16,SE,134,0.0,1.0,82,0.00,,,0.00,,2013-06-23 08:02:00,
2013-06-23 04:12:00,67.0,61.0,30.17,SE,134,0.0,1.0,81,0.00,,,0.00,,2013-06-23 08:12:00,
2013-06-23 04:22:00,67.0,61.0,30.16,SE,134,0.0,1.0,81,0.00,,,0.00,,2013-06-23 08:22:00,
2013-06-23 04:34:00,67.0,61.0,30.16,SE,134,0.0,1.0,81,0.00,,,0.00,,2013-06-23 08:34:00,
2013-06-23 04:43:00,66.0,60.0,30.16,SE,134,0.0,1.0,82,0.00,,,0.00,,2013-06-23 08:43:00,
2013-06-23 04:53:00,66.0,60.0,30.17,SE,134,0.0,1.0,82,0.00,,,0.00,,2013-06-23 08:53:00,
2013-06-23 05:02:00,66.0,60.0,30.17,SE,134,0.0,1.0,81,0.00,,,0.00,,2013-06-23 09:02:00,
2013-06-23 05:12:00,66.0,60.0,30.18,SE,134,0.0,1.0,81,0.00,,,0.00,,2013-06-23 09:12:00,
2013-06-23 05:22:00,67.0,61.0,30.17,SE,134,0.0,1.0,80,0.00,,,0.00,,2013-06-23 09:22:00,
2013-06-23 05:34:00,67.0,61.0,30.17,SE,134,0.0,1.0,80,0.00,,,0.00,,2013-06-23 09:34:00,
2013-06-23 05:43:00,67.0,61.0,30.18,SE,134,0.0,1.0,80,0.00,,,0.00,,2013-06-23 09:43:00,
2013-06-23 05:53:00,67.0,61.0,30.18,SE,134,0.0,1.0,81,0.00,,,0.00,,2013-06-23 09:53:00,
2013-06-23 06:02:00,66.0,60.0,30.18,SE,134,0.0,1.0,81,0.00,,,0.00,,2013-06-23 10:02:00,
2013-06-23 06:11:00,66.0,60.0,30.18,SE,134,0.0,1.0,82,0.00,,,0.00,,2013-06-23 10:11:00,
2013-06-23 06:22:00,65.0,60.0,30.19,SE,134,0.0,1.0,84,0.00,,,0.00,,2013-06-23 10:22:00,
2013-06-23 06:34:00,65.0,60.0,30.19,SE,134,0.0,1.0,84,0.00,,,0.00,,2013-06-23 10:34:00,
2013-06-23 06:43:00,65.0,60.0,30.19,SE,134,0.0,1.0,84,0.00,,,0.00,,2013-06-23 10:43:00,
2013-06-23 06:53:00,65.0,60.0,30.19,SE,134,0.0,1.0,84,0.00,,,0.00,,2013-06-23 10:53:00,
2013-06-23 07:02:00,65.0,60.0,30.19,SE,134,0.0,1.0,84,0.00,,,0.00,,2013-06-23 11:02:00,
2013-06-23 07:11:00,66.0,61.0,30.20,SSE,149,0.0,5.0,84,0.00,,,0.00,,2013-06-23 11:11:00,
2013-06-23 07:22:00,66.0,61.0,30.21,SSE,148,0.0,1.0,83,0.00,,,0.00,,2013-06-23 11:22:00,
2013-06-23 07:33:00,67.0,62.0,30.21,SSE,148,0.0,0.0,83,0.00,,,0.00,,2013-06-23 11:33:00,
2013-06-23 07:43:00,67.0,62.0,30.21,SSE,148,0.0,1.0,83,0.00,,,0.00,,2013-06-23 11:43:00,
2013-06-23 07:53:00,67.0,62.0,30.21,SE,143,0.0,2.0,83,0.00,,,0.00,,2013-06-23 11:53:00,
2013-06-23 08:01:00,69.0,63.0,30.21,SE,138,0.0,2.0,82,0.00,,,0.00,,2013-06-23 12:01:00,
2013-06-23 08:12:00,70.0,64.0,30.21,SE,138,0.0,1.0,80,0.00,,,0.00,,2013-06-23 12:12:00,
2013-06-23 08:22:00,70.0,63.0,30.21,SE,138,0.0,1.0,79,0.00,,,0.00,,2013-06-23 12:22:00,
2013-06-23 08:33:00,70.0,64.0,30.22,SE,138,0.0,1.0,80,0.00,,,0.00,,2013-06-23 12:33:00,
2013-06-23 09:02:00,71.0,64.0,30.22,South,172,0.0,4.0,78,0.00,,,0.00,,2013-06-23 13:02:00,
2013-06-23 09:43:00,73.0,66.0,30.22,SSE,165,0.0,1.0,79,0.00,,,0.00,,2013-06-23 13:43:00,
2013-06-23 09:53:00,73.0,66.0,30.22,SSE,165,0.0,2.0,79,0.00,,,0.00,,2013-06-23 13:53:00,
2013-06-23 10:05:00,74.0,67.0,30.22,SSE,165,0.0,2.0,78,0.00,,,0.00,,2013-06-23 14:05:00,
2013-06-23 10:11:00,74.0,66.0,30.22,SSE,165,0.0,2.0,76,0.00,,,0.00,,2013-06-23 14:11:00,
2013-06-23 10:34:00,74.0,65.0,30.22,SSW,211,2.0,4.0,74,0.00,,,0.00,,2013-06-23 14:34:00,
2013-06-23 10:44:00,75.0,67.0,30.22,SSE,161,1.0,6.0,75,0.00,,,0.00,,2013-06-23 14:44:00,
2013-06-23 10:52:00,74.0,66.0,30.21,WSW,250,1.0,6.0,75,0.00,,,0.00,,2013-06-23 14:52:00,
2013-06-23 11:05:00,74.0,65.0,30.22,SW,223,1.0,7.0,73,0.00,,,0.00,,2013-06-23 15:05:00,
2013-06-23 11:12:00,74.0,66.0,30.22,SW,226,0.0,3.0,75,0.00,,,0.00,,2013-06-23 15:12:00,
2013-06-23 11:23:00,74.0,66.0,30.22,SSW,209,0.0,7.0,75,0.00,,,0.00,,2013-06-23 15:23:00,
2013-06-23 11:35:00,76.0,66.0,30.22,WSW,241,1.0,5.0,72,0.00,,,0.00,,2013-06-23 15:35:00,
2013-06-23 11:43:00,77.0,67.0,30.22,SSE,156,0.0,5.0,72,0.00,,,0.00,,2013-06-23 15:43:00,
2013-06-23 11:52:00,77.0,66.0,30.21,SE,143,0.0,5.0,70,0.00,,,0.00,,2013-06-23 15:52:00,
2013-06-23 12:06:00,79.0,68.0,30.21,SW,230,2.0,5.0,70,0.00,,,0.00,,2013-06-23 16:06:00,
2013-06-23 12:12:00,79.0,69.0,30.21,WNW,296,3.0,7.0,71,0.00,,,0.00,,2013-06-23 16:12:00,
2013-06-23 12:36:00,78.0,68.0,30.21,WNW,290,1.0,7.0,71,0.00,,,0.00,,2013-06-23 16:36:00,
2013-06-23 12:43:00,78.0,68.0,30.24,West,274,3.0,8.0,71,0.00,,,0.00,,2013-06-23 16:43:00,
2013-06-23 12:53:00,77.0,68.0,30.24,West,270,1.0,8.0,73,0.00,,,0.00,,2013-06-23 16:53:00,
2013-06-23 13:06:00,77.0,68.0,30.24,West,264,2.0,5.0,74,0.00,,,0.00,,2013-06-23 17:06:00,
2013-06-23 13:33:00,79.0,68.0,30.23,SSW,203,1.0,5.0,70,0.00,,,0.00,,2013-06-23 17:33:00,
2013-06-23 13:43:00,79.0,67.0,30.22,SW,221,1.0,4.0,67,0.00,,,0.00,,2013-06-23 17:43:00,
2013-06-23 13:53:00,80.0,69.0,30.21,South,175,0.0,5.0,69,0.00,,,0.00,,2013-06-23 17:53:00,
2013-06-23 14:01:00,81.0,68.0,30.21,South,191,0.0,4.0,65,0.00,,,0.00,,2013-06-23 18:01:00,
2013-06-23 14:22:00,81.0,69.0,30.21,WSW,255,1.0,6.0,67,0.00,,,0.00,,2013-06-23 18:22:00,
2013-06-23 14:34:00,81.0,69.0,30.20,WSW,249,1.0,6.0,66,0.00,,,0.00,,2013-06-23 18:34:00,
2013-06-23 14:43:00,81.0,67.0,30.20,South,186,2.0,7.0,63,0.00,,,0.00,,2013-06-23 18:43:00,
2013-06-23 14:53:00,81.0,67.0,30.19,West,269,2.0,9.0,62,0.00,,,0.00,,2013-06-23 18:53:00,
2013-06-23 15:01:00,81.0,65.0,30.19,North,5,2.0,6.0,59,0.00,,,0.00,,2013-06-23 19:01:00,
2013-06-23 15:11:00,82.0,68.0,30.18,North,360,0.0,6.0,62,0.00,,,0.00,,2013-06-23 19:11:00,
2013-06-23 15:32:00,83.0,68.0,30.18,NW,319,2.0,6.0,61,0.00,,,0.00,,2013-06-23 19:32:00,
2013-06-23 15:43:00,83.0,68.0,30.17,NW,319,3.0,8.0,60,0.00,,,0.00,,2013-06-23 19:43:00,
2013-06-23 15:53:00,83.0,68.0,30.17,West,260,5.0,7.0,60,0.00,,,0.00,,2013-06-23 19:53:00,
2013-06-23 16:02:00,83.0,68.0,30.17,West,276,3.0,6.0,60,0.00,,,0.00,,2013-06-23 20:02:00,
2013-06-23 16:12:00,83.0,67.0,30.17,South,184,2.0,6.0,59,0.00,,,0.00,,2013-06-23 20:12:00,
2013-06-23 16:24:00,83.0,68.0,30.17,WNW,298,1.0,6.0,61,0.00,,,0.00,,2013-06-23 20:24:00,
2013-06-23 16:42:00,83.0,65.0,30.17,West,266,1.0,7.0,54,0.00,,,0.00,,2013-06-23 20:42:00,
2013-06-23 16:53:00,83.0,65.0,30.17,West,265,3.0,5.0,54,0.00,,,0.00,,2013-06-23 20:53:00,
2013-06-23 17:01:00,83.0,67.0,30.16,WNW,286,1.0,6.0,59,0.00,,,0.00,,2013-06-23 21:01:00,
2013-06-23 17:12:00,83.0,66.0,30.16,NW,311,2.0,8.0,57,0.00,,,0.00,,2013-06-23 21:12:00,
2013-06-23 17:22:00,84.0,67.0,30.16,NW,304,2.0,7.0,56,0.00,,,0.00,,2013-06-23 21:22:00,
2013-06-23 17:34:00,84.0,69.0,30.16,NW,316,4.0,7.0,60,0.00,,,0.00,,2013-06-23 21:34:00,
2013-06-23 17:44:00,84.0,67.0,30.16,NW,310,0.0,6.0,56,0.00,,,0.00,,2013-06-23 21:44:00,
2013-06-23 17:52:00,84.0,67.0,30.15,SW,232,1.0,8.0,57,0.00,,,0.00,,2013-06-23 21:52:00,
2013-06-23 18:01:00,84.0,66.0,30.15,WSW,244,0.0,5.0,55,0.00,,,0.00,,2013-06-23 22:01:00,
2013-06-23 18:12:00,84.0,68.0,30.16,WNW,296,4.0,7.0,59,0.00,,,0.00,,2013-06-23 22:12:00,
2013-06-23 18:32:00,83.0,64.0,30.15,NW,304,3.0,7.0,53,0.00,,,0.00,,2013-06-23 22:32:00,
2013-06-23 18:43:00,83.0,66.0,30.15,WNW,284,0.0,7.0,56,0.00,,,0.00,,2013-06-23 22:43:00,
2013-06-23 18:53:00,83.0,65.0,30.15,WNW,296,2.0,7.0,55,0.00,,,0.00,,2013-06-23 22:53:00,
2013-06-23 19:01:00,83.0,67.0,30.14,WNW,287,3.0,6.0,58,0.00,,,0.00,,2013-06-23 23:01:00,
2013-06-23 19:12:00,83.0,66.0,30.14,WNW,290,4.0,6.0,57,0.00,,,0.00,,2013-06-23 23:12:00,
2013-06-23 19:22:00,82.0,66.0,30.15,WNW,290,1.0,6.0,58,0.00,,,0.00,,2013-06-23 23:22:00,
2013-06-23 19:33:00,81.0,66.0,30.15,WNW,290,0.0,1.0,61,0.00,,,0.00,,2013-06-23 23:33:00,
2013-06-23 19:44:00,82.0,67.0,30.15,WNW,290,0.0,5.0,60,0.00,,,0.00,,2013-06-23 23:44:00,
2013-06-23 19:52:00,82.0,67.0,30.15,WNW,290,0.0,1.0,61,0.00,,,0.00,,2013-06-23 23:52:00,
2013-06-23 20:01:00,81.0,67.0,30.15,WNW,290,0.0,4.0,62,0.00,,,0.00,,2013-06-24 00:01:00,
2013-06-23 20:11:00,81.0,67.0,30.16,WNW,290,0.0,2.0,62,0.00,,,0.00,,2013-06-24 00:11:00,
2013-06-23 20:33:00,81.0,66.0,30.16,WNW,290,0.0,1.0,61,0.00,,,0.00,,2013-06-24 00:33:00,
2013-06-23 20:42:00,81.0,67.0,30.16,WNW,290,0.0,1.0,62,0.00,,,0.00,,2013-06-24 00:42:00,
2013-06-23 20:52:00,80.0,66.0,30.16,WNW,290,0.0,0.0,63,0.00,,,0.00,,2013-06-24 00:52:00,
2013-06-23 21:02:00,80.0,67.0,30.16,WNW,290,0.0,0.0,65,0.00,,,0.00,,2013-06-24 01:02:00,
2013-06-23 21:11:00,79.0,66.0,30.16,WNW,290,0.0,1.0,65,0.00,,,0.00,,2013-06-24 01:11:00,
2013-06-23 21:22:00,78.0,66.0,30.16,WNW,290,0.0,1.0,67,0.00,,,0.00,,2013-06-24 01:22:00,
2013-06-23 21:32:00,78.0,67.0,30.16,WNW,290,0.0,1.0,68,0.00,,,0.00,,2013-06-24 01:32:00,
2013-06-23 21:42:00,77.0,66.0,30.16,WNW,290,0.0,0.0,70,0.00,,,0.00,,2013-06-24 01:42:00,
2013-06-23 21:53:00,76.0,66.0,30.17,WNW,290,0.0,0.0,71,0.00,,,0.00,,2013-06-24 01:53:00,
2013-06-23 22:02:00,76.0,66.0,30.17,WNW,290,0.0,0.0,71,0.00,,,0.00,,2013-06-24 02:02:00,
2013-06-23 22:11:00,76.0,66.0,30.18,WNW,290,0.0,1.0,71,0.00,,,0.00,,2013-06-24 02:11:00,
2013-06-23 22:42:00,75.0,65.0,30.20,WNW,290,0.0,1.0,70,0.00,,,0.00,,2013-06-24 02:42:00,
2013-06-23 22:53:00,75.0,65.0,30.19,WNW,290,0.0,1.0,70,0.00,,,0.00,,2013-06-24 02:53:00,
2013-06-23 23:01:00,75.0,65.0,30.20,WNW,290,0.0,0.0,70,0.00,,,0.00,,2013-06-24 03:01:00,
2013-06-23 23:11:00,75.0,64.0,30.20,WNW,290,0.0,1.0,69,0.00,,,0.00,,2013-06-24 03:11:00,
2013-06-23 23:22:00,75.0,65.0,30.20,WNW,290,0.0,2.0,70,0.00,,,0.00,,2013-06-24 03:22:00,
2013-06-23 23:33:00,75.0,65.0,30.20,WNW,290,0.0,1.0,70,0.00,,,0.00,,2013-06-24 03:33:00,
2013-06-23 23:43:00,75.0,65.0,30.17,WNW,290,0.0,0.0,70,0.00,,,0.00,,2013-06-24 03:43:00,
2013-06-23 23:53:00,74.0,64.0,30.18,WNW,290,0.0,1.0,71,0.00,,,0.00,,2013-06-24 03:53:00,